Curium One
1 60242U 24128H   26224.94536855  .00003786  00000-0  22212-3 0  9998
2 60242  61.9798   4.6316 0032128 142.6098 217.7242 15.13243018115046
ROBUSTA-3A
1 60243U 24128J   26224.61235023  .00003988  00000-0  23872-3 0  9993
2 60243  61.9874   8.6019 0033921 139.9575 220.4031 15.12357015114955
CatSat
1 60246U 24125J   26225.14401256  .00049235  00000-0  47793-3 0  9998
2 60246  97.2023  78.6804 0015308 332.4330  27.6117 15.66047862116288
HYPERVIEW-1G (RS66S)
1 61772U 24199AP  26225.16930442  .00919861  48953-3  10017-2 0  9991
2 61772  97.2568 108.7413 0005704 161.9422 198.2066 16.09930842143717
AO-123
1 61781U 24199AY  26225.16602480  .00004012  00000-0  11482-3 0  9998
2 61781  97.2914  93.3287 0015457 102.6078 257.6895 15.36416085142676
LASARsat
1 62391U 24247Q   26225.21100032  .00019761  00000-0  35173-3 0  9992
2 62391  44.9739 300.9321 0009210 335.9817  24.0643 15.49837554 92152
CroCube
1 62394U 24247T   26225.19359152  .00023336  00000-0  37935-3 0  9992
2 62394  44.9708 297.3001 0009326 343.5855  16.4734 15.52291446 92198
JINJUSat 1B
1 63210U 25052A   26224.94908808  .00007827  00000-0  23183-3 0  9992
2 63210  97.3922 121.8273 0001580 192.6789 167.4415 15.35145287 78808
NUSHSAT 1
1 63211U 25052B   26225.15364198  .00010841  00000-0  29158-3 0  9993
2 63211  97.3899 122.8118 0001181 180.4757 179.6487 15.38061227 78895
TEVEL2-4
1 63213U 25052D   26224.61469832  .00009484  00000-0  26881-3 0  9997
2 63213  97.3823 121.1533 0000258 181.1684 178.9560 15.36465403 78771
TEVEL2-5
1 63214U 25052E   26225.16317044  .00009234  00000-0  26343-3 0  9992
2 63214  97.3818 121.6343 0000191 169.5374 190.5874 15.36271000 78857
TEVEL2-6
1 63215U 25052F   26225.17681022  .00009587  00000-0  27372-3 0  9998
2 63215  97.3823 121.6328 0000123 143.4797 216.6455 15.36236286 78854
TEVEL2-1
1 63217U 25052H   26224.64045734  .00008919  00000-0  25981-3 0  9997
2 63217  97.3799 120.6487 0000652 348.5891  11.5338 15.35625124 78756
TEVEL2-3
1 63218U 25052J   26225.15407549  .00009292  00000-0  26989-3 0  9995
2 63218  97.3799 121.1937 0000546  11.1180 349.0075 15.35704012 78839
TEVEL2-2
1 63219U 25052K   26225.16165544  .00008802  00000-0  25625-3 0  9995
2 63219  97.3796 121.1747 0000619 344.5596  15.5629 15.35647483 78839
TEVEL2-9
1 63237U 25052AD  26224.49754874  .00007798  00000-0  24310-3 0  9993
2 63237  97.3861 119.7564 0004084 319.3718  40.7219 15.33513248 78652
TEVEL2-7
1 63238U 25052AE  26224.22371549  .00007094  00000-0  22378-3 0  9990
2 63238  97.3863 119.3736 0004167 319.5254  40.5677 15.33171229 78601
TEVEL2-8
1 63239U 25052AF  26224.42828398  .00007102  00000-0  22410-3 0  9999
2 63239  97.3865 119.5532 0004163 321.3010  38.7933 15.33160958 78631
SPIRONE
1 66657U 25274H   26224.32682208  .00000593  00000-0  61282-4 0  9997
2 66657  97.7466 152.8210 0011866 179.6395 180.4836 14.93741799 38603
K-HERO
1 66660U 25274L   26224.51698127  .00000386  00000-0  41350-4 0  9993
2 66660  97.7476 153.2105 0013555 184.4988 175.6113 14.94143505 38645
SNUGLITE-III DURI
1 66661U 25274M   26224.36974590  .00000582  00000-0  59642-4 0  9999
2 66661  97.7473 153.0860 0014132 186.3468 173.7576 14.94162147 38628
SAKHACUBE-CHOLBON
1 67290U 25313AU  26224.18305422  .00004021  00000-0  16000-3 0  9996
2 67290  97.3909 298.5441 0010147 150.4194 209.7620 15.25798709 34515
RS95S (QMR-KWT-2)
1 67291U 25313AV  26224.43961178  .00006389  00000-0  23904-3 0  9991
2 67291  97.3908 299.1075 0009829 147.6343 212.5501 15.27622910 34572
Ten-Koh2
1 68261U 25241B   26224.92733737  .00003797  00000-0  16587-3 0  9990
2 68261  51.6585  49.4511 0005796 327.0745  32.9872 15.24493510 23565
JACK-002
1 68417U 26067B   26224.45794561  .00002732  00000-0  13003-3 0  9998
2 68417  97.4610 182.3913 0004109  84.4035 275.7668 15.20006428 20494
DISCO 2
1 68431U 26067R   26224.42229791  .00003456  00000-0  16444-3 0  9995
2 68431  97.4640 182.3490 0003592 123.2630 236.8950 15.19829588 20480
HADES-SA (SpinnyONE)
1 68446U 26067AG  26223.85035661  .00008613  00000-0  39340-3 0  9998
2 68446  97.4430 181.3955 0004300 223.2575 136.8323 15.20814752 20386
PARUS-6U1
1 68456U 26067AS  26224.88569338  .00002490  00000-0  12564-3 0  9992
2 68456  97.4595 182.4124 0004246 208.8195 151.2804 15.18042202 20537
SAL-E
1 68458U 26067AU  26224.60461877  .00003031  00000-0  15030-3 0  9996
2 68458  97.4519 182.0448 0004046 221.9782 138.1143 15.18483800 20494
FSI-SAT 2
1 68792U 26088A   26224.98877168  .00001393  00000-0  96472-4 0  9994
2 68792  97.5138  12.8617 0012739 273.6168  86.3603 15.07217231 16841
OrigamiSat 2
1 68795U 26088D   26224.97833292  .00005290  00000-0  33014-3 0  9998
2 68795  97.5129  13.1827 0013895 240.2471 119.7377 15.09849330 16866
ARICA 2
1 68796U 26088E   26224.93740412  .00001527  00000-0  10091-3 0  9995
2 68796  97.5135  13.0688 0014129 240.8392 119.1424 15.08812619 16852
WASEDA-SAT-ZERO-II
1 68797U 26088F   26223.99362700  .00002471  00000-0  15918-3 0  9993
2 68797  97.5124  12.1767 0013978 243.7932 116.1860 15.09182265 16716
MANGARO-II-Piscus
1 68798U 26088G   26224.97725612  .00001630  00000-0  10644-3 0  9995
2 68798  97.5140  13.1804 0017512 244.4535 115.4884 15.09125737 16868
CO-128
1 69872U 26156D   26224.31970089  .00000461  00000-0  52528-4 0  9992
2 69872  97.7482 124.1156 0003799  17.0561 343.0784 14.90756256  5367
MARINA
1 69920U 26156BD  26225.16110436  .00000932  00000-0  97333-4 0  9998
2 69920  97.7490 125.0168 0008566  41.4884 318.6984 14.92051646  5496
IO-86
1 40931U          26199.45381863  .00000000  00000-0  77536-4 0    07
2 40931   6.0006 322.6653 0012733 338.8432 273.6875 14.79294310    03
LILIUM-4
1 71922C 26067AC  26089.50133053 -.00014632  00000+0 -74472-3 0    04
2 71922  97.4497  49.1617 0004341   5.9603 355.7042 15.16896692    16
